User: anonymous   Login
Location: Cossonay
(46.5833°N, 6.4167°E)
Time: 14:44:59
(UTC+00:00)
Language:

SL-4 R/B - Orbit

View from above orbital plane
View from above orbital plane
View from above satellite
View from above satellite

Ground track
Ground track

The orbit data is extracted from the following two-line orbital elements,

1 39679U 14021B   21163.54895201  .00000240  00000-0  29690-4 0  9995
2 39679  51.6149 235.6780 0170536 114.0470 247.8451 15.06994499393318
Epoch (UTC): 12 June 2021 13:10:29
Eccentricity: 0.0170536
inclination: 51.6149°
perigee height: 427 km
apogee height: 663 km
right ascension of ascending node: 235.6780°
argument of perigee: 114.0470°
revolutions per day: 15.06994499
mean anomaly at epoch: 247.8451°
orbit number at epoch: 39331

The dashed part of the orbit path shows where the satellite is in the earth's shadow,  

DLR